星链-3911 (STARLINK-3911 )

导读 | 星芒AI

STARLINK-3911 是 SpaceX Starlink 卫星互联网项目中的一颗低轨道卫星,属于第 11 批次部署的星链卫星群。该卫星于 2021 年 10 月发射,旨在为全球用户提供高速互联网服务。它运行在约 550 公里的轨道高度,具备先进通信技术,支持宽带接入。Starlink 项目通过部署数千颗卫星,致力于改善偏远地区网络覆盖,推动全球互联网普及。STARLINK-3911 在提升网络连接性和减少数字鸿沟方面发挥着重要作用。

基本信息
目录编号:
52565
目录名称:
STARLINK-3911
国际标识:
2022-051AJ
轨道中心:
EARTH
卫星名称:
星链-3911
卫星全名:
星链-3911 (STARLINK-3911 )
卫星状态:
在轨 (已飞行1272 天)
发射日期:
2022-05-13 UTC
国别 :
美国 (US)
星等 :
--
轨道信息
数据来源 国际轨道数据
星历时间: 2025-11-04T20:24:52+0800
11小时前
查看轨道信息
半长轴: 6917.855km
偏心率: 0.0001351
轨道倾角: 53.217°
近地点辐角 80.047°
升交点赤经 321.042°
平近点角 280.068°
近地点: 538.785km
远地点: 540.655km
周期: 95.437分钟
每日圈数: 15.088486
详细信息
固有亮度:
5
最大亮度:
2.5
卫星平台:
Starlink v1.5
覆盖范围:
全球
运营商:
太空探索技术公司
运营商所在国:
美国
制造商(研发单位):
太空探索技术公司
制造商所在国:
美国
使用方式:
暂无
卫星简介
星链(Starlink)计划是由太空探索技术公司(SpaceX)提出的一个巨型低轨卫星互联网星座项目,计划在2019年至2024年间在太空搭建由约1.2万颗卫星组成的“星链”网络,其中1584颗将部署在地球上空550千米处的近地轨道,并从2020年开始工作。该卫星仍在工作。
2D轨道图
3D轨道图
轨道高度分析图
轨道倾角分析图
轨道综合分析图
查看轨道综合分析图